Regional Weather Roundup
Issued by NWS Cleveland, OH

Home | Current Version | Previous Version | Graphics & Text | Print | Product List | Glossary On
Versions: 1 2 3 4 5 6 7 8 9 10 11 12 13 14 15 16 17 18 19 20 21 22 23 24 25 26 27 28 29 30 31 32 33 34 35 36 37 38 39 40 41 42 43 44 45 46 47 48 49 50
000
ASUS41 KCLE 281110
RWRCLE
OHIO REGIONAL WEATHER ROUNDUP
NATIONAL WEATHER SERVICE CLEVELAND, OH
600 AM EST FRI NOV 28 2014

NOTE: "FAIR" INDICATES FEW OR NO CLOUDS BELOW 12,000 FEET WITH NO
SIGNIFICANT WEATHER AND/OR OBSTRUCTIONS TO VISIBILITY.

OHZ001>008-015>018-024>027-034-035-043-044-281200-
   NORTHWEST OHIO

CITY           SKY/WX    TMP DP  RH WIND       PRES   REMARKS
DEFIANCE       PTCLDY    21  16  81 SW3       30.37R
FINDLAY        CLOUDY    25  18  74 NW3       30.34S
TOLEDO EXPRESS CLEAR     17   9  70 NW3       30.35S
TOLEDO EXEC    CLEAR     16   8  71 NW5       30.37S WCI   9
LIMA           PTCLDY    22  17  81 NW5       30.34S WCI  16
$$

OHZ009>014-019>023-028>033-038-089-281200-
   NORTHEAST OHIO

CITY           SKY/WX    TMP DP  RH WIND       PRES   REMARKS
CLE-HOPKINS    CLOUDY    23  13  65 W14       30.36R WCI  11
CLE-LAKEFRONT  CLOUDY    26  15  63 W17G26    30.32R WCI  13
CUY CO. ARPT   NOT AVBL
LORAIN-ELYRIA  CLOUDY    18  12  77 W7        30.34S WCI   9
ASHTABULA      LGT SNOW  24  18  77 W9        30.29R WCI  14
AKRON-CANTON   PTCLDY    21  13  71 W9        30.31R WCI  11
WOOSTER        CLOUDY    20  12  71 NW9       30.33R WCI   9
MANSFIELD      CLOUDY    20  14  77 NW6       30.32R WCI  12
YOUNGSTOWN     MOCLDY    22  17  81 W10       30.27R WCI  11
$$

OHZ042-051>053-060>062-070>072-077>081-281200-
  SOUTHWEST OHIO

CITY           SKY/WX    TMP DP  RH WIND       PRES   REMARKS
CINC-COVINGTON CLOUDY    27  18  69 S5        30.38S WCI  22
CINC-LUNKEN    CLOUDY    27  18  69 SW6       30.42S WCI  20
HAMILTON       CLOUDY    26  17  68 CALM      30.41R
DAYTON         PTCLDY    19  14  81 W7        30.38R WCI  10
WRIGHT-PAT AFB PTCLDY    19  14  82 SW5       30.39R WCI  12
DAYTON GENERAL MOCLDY    22  16  78 CALM      30.37R
WILMINGTON     PTCLDY    22  14  71 CALM      30.36S
$$

OHZ036-037-039>041-045>050-054>059-063>069-073>076-082>088-281200-
  CENTRAL AND SOUTHEAST OHIO

CITY           SKY/WX    TMP DP  RH WIND       PRES   REMARKS
COLUMBUS       PTCLDY    22  17  81 NW5       30.35F WCI  16
OSU AIRPORT    PTCLDY    22  17  81 W6        30.35S WCI  14
BOLTON FIELD   FLURRIES  23  19  86 MISG      30.36S
RICKENBACK AFB CLEAR     21  18  86 CALM      30.36F
NEWARK         PTCLDY    24  18  77 W7        30.34S WCI  16
MARION         CLOUDY    24  17  74 NW7       30.34S WCI  16
LANCASTER      CLEAR     22  17  81 W5        30.36S WCI  16
ZANESVILLE     CLOUDY    26  21  81 W6        30.34R WCI  19
NEW PHILLY     CLOUDY    25  12  58 NW16      30.35R WCI  12
$$



USA.gov is the U.S. government's official web portal to all federal, state and local government web resources and services.